Rbgn^[z[y[W
メイン
   新天体発見情報
     Comet P/2024 S2 (Rankin)
投稿するにはまず登録を

フラット表示 前のトピック | 次のトピック
投稿者 スレッド
佐藤裕久
投稿日時: 2024-10-24 21:00
モデレータ
登録日: 2005-6-12
居住地: 日本
投稿: 2669
オンライン
Comet P/2024 S2 (Rankin)

David Rankin (アリゾナ大学月惑星研究所, LPL)の通報によると、9月30日、自宅の0.28-m g-f/2.2反射
望遠鏡で得たCCD画像から、12"の集光したコマと尾のない拡散した彗星を発見した。
小惑星センターのPCCP webpageに公表後、佐藤英貴氏(東京都文京区, 10月2.5日UT、60-秒CCD露出16枚の
スタック, 0.43-m f/6.8 アストログラフ, Utah Desert Remote 天文台, Beryl Junction 近郊, ユタ州, 
米国, 遠隔操作:強く集光した12"のコマが見えるが尾はない。7".6の円形範囲で測定した光度は18.2等で
あった)らCCD観測者によって彗星状と観測された。

彗星機能の報告は次のとおり、

OC   Date        Reporter           Coma    Tail    PA          Exposures
950  2024-10-01  M. Masek          14"
I52  2024-10-02  J. B. Fazekas      5".5      2"    240-280
U94  2024-10-02  N. Paul            8"       12"    288           10x60s
U94  2024-10-02  H. Sato           12"                            16x60s
W62  2024-10-04  J. Maikner         5"       11"    270           65x60s
F65  2024-10-04  J. D. Armstrong    4"        4".5  240-300
094  2024-10-04  A. Novichonok      6"        6"    205-270
V21  2023-10-10  D. T. Durig        8"       10{    270          120x30s

発見位置は次のとおり、

     2024 UT             R.A. (2000) Decl.       Mag.   Observer
     Sept.30.42226    6 11 41.90   +30 49 33.9   17.6   Rankin
          30.44579    6 11 44.30   +30 49 41.1   17.6     "
          30.46795    6 11 46.60   +30 49 45.8   17.7     "

MPCの楕円軌道要素、位置推算表は次のとおり、

Orbital elements:
    P/2024 S2 (Rankin)                                                          
Epoch 2024 Oct. 17.0 TT = JDT 2460600.5                                         
T 2024 Sept. 15.94708 TT                                Rudenko                 
q   2.0510556            (2000.0)            P               Q                  
n   0.08343129     Peri.   48.89896     +0.53973358     -0.84161254             
a   5.1870061      Node     8.50102     +0.72770962     +0.45485900             
e   0.6045781      Incl.    7.53715     +0.42323323     +0.29119001             
P  11.8                                                                         
From 144 observations 2024 Sept. 30-Oct. 10, mean residual 0".5.                
                                                                                
Ephemeris:
Date    TT    R. A. (2000) Decl.     Delta      r    Elong.  Phase   m1
2024 09 12    05 36 30.6 +29 20 48   1.8854  2.0514    84.6    29.2  19.5
...
2024 09 27    06 05 33.9 +30 34 28   1.7440  2.0536    92.8    29.2  19.3
...
2024 10 05    06 19 31.6 +31 09 06   1.6718  2.0587    97.6    28.8  19.3
...
2024 10 11    06 29 06.0 +31 33 52   1.6196  2.0643   101.4    28.3  19.2
2024 10 12    06 30 36.8 +31 37 56   1.6110  2.0654   102.1    28.2  19.2
2024 10 13    06 32 06.0 +31 41 59   1.6026  2.0665   102.8    28.1  19.2
...
2024 10 19    06 40 28.6 +32 06 13   1.5530  2.0741   106.9    27.4  19.1
...
2024 10 27    06 50 02.1 +32 38 47   1.4905  2.0864   112.7    26.1  19.1
...
2024 11 11    07 02 08.2 +33 42 54   1.3880  2.1162   124.9    22.6  19.0

(MPEC 2024-T259、CBET 5457)

フラット表示 前のトピック | 次のトピック

題名 投稿者 日時
 » Comet P/2024 S2 (Rankin) 佐藤裕久 2024-10-24 21:00

投稿するにはまず登録を
 
© 1999 Tsutomu Seki.